Home > Weather > Basra > Past weeks

Flag for Iraq Weather for the Past 2 Weeks in Basra, Iraq

Now
55 °F

Clear.


Feels Like: 55 °F
Forecast: 57 / 76 °F
Wind: 5 mph from Northwest

Location: Abadan Airport

Current Time: Feb 15, 2016 at 3:23:00 AM

Latest Report: Feb 15, 2016 at 2:00 AM


Visibility: 10 mi

Pressure: 30.12 "Hg

Humidity: 77%

Dew point: 48 °F

Location of BasraLocation

Historic Weather in Basra — Graph

°F

Basra Temperature Yesterday

Maximum temperature yesterday: 73 °F (at 3:00 PM)
Minimum temperature yesterday: 48 °F (at 7:00 AM)
Average temperature yesterday: 62 °F

High & Low Weather Summary for the Past Weeks

 TemperatureHumidityPressure
High73 °F (Feb 14, 3:00 PM)93% (Feb 2, 6:30 AM)30.36 "Hg (Feb 2, 6:30 AM)
Low36 °F (Jan 31, 7:00 AM)21% (Feb 12, 3:00 PM)29.86 "Hg (Feb 7, 5:00 AM)
Average57 °F58%30.15 "Hg
* Reported Jan 31 2:00 AM — Feb 15 2:00 AM, Basra, Weather by CustomWeather, © 2016

Note: Actual official high and low records may vary slightly from our data, if they occured in-between our weather recording intervals... More about our weather records

Advertising

Basra Weather History for the Previous 24 Hours

 ConditionsComfort  
Time TempWeatherWind HumidityBarometerVisibility
2:00 AM
Mon, Feb 15
55 °FClear.5 mph77%30.12 "Hg10 mi
1:00 AM55 °FClear.No wind72%30.15 "Hg10 mi
12:00 AM57 °FClear.No wind67%30.15 "Hg10 mi
11:00 PM
Sun, Feb 14
59 °FClear.No wind63%30.15 "Hg10 mi
10:00 PM61 °FClear.5 mph63%30.15 "Hg10 mi
9:00 PM63 °FClear.5 mph59%30.15 "Hg10 mi
8:30 PM64 °FClear.5 mph52%30.15 "Hg10 mi
8:00 PM64 °FClear.5 mph52%30.15 "Hg10 mi
7:30 PM64 °FClear.5 mph56%30.12 "Hg10 mi
7:00 PM66 °FClear.5 mph52%30.12 "Hg10 mi
6:30 PM68 °FClear.5 mph49%30.12 "Hg10 mi
6:00 PM70 °FSunny.5 mph43%30.12 "Hg10 mi
5:00 PM73 °FSunny.7 mph29%30.09 "Hg10 mi
4:30 PM73 °FSunny.7 mph33%30.09 "Hg10 mi
4:00 PM73 °FSunny.7 mph33%30.09 "Hg10 mi
3:00 PM73 °FSunny.12 mph33%30.09 "Hg10 mi
2:00 PM72 °FSunny.12 mph36%30.12 "Hg10 mi
1:00 PM70 °FSunny.12 mph35%30.12 "Hg10 mi
12:00 PM68 °FSunny.14 mph40%30.15 "Hg10 mi
11:00 AM66 °FClear.12 mph43%30.18 "Hg5 mi
10:00 AM61 °FClear.7 mph59%30.18 "Hg4 mi
9:00 AM55 °FHaze.9 mph67%30.18 "Hg2 mi
8:00 AM50 °FHaze.No wind82%30.18 "Hg2 mi
7:00 AM48 °FClear.No wind82%30.15 "Hg4 mi
6:00 AM50 °FClear.No wind76%30.12 "Hg10 mi
5:00 AM50 °FClear.No wind82%30.12 "Hg10 mi
4:00 AM52 °FClear.No wind77%30.12 "Hg10 mi
3:00 AM52 °FClear.No wind77%30.12 "Hg10 mi
Weather by CustomWeather, © 2016

See weather overviewHow to use our weather pages